Probability
0 0 0 0 0 0 0 0 0 0 0 0 0 0 0 0 0 0 0 0 0 0 0 0 0 0 0 0 0 0 0 0 0 0 0 0 0 0 0 0 0 0 0
0 0 0 0 0 0 0 0 0 0 0 0 0 0 0 0 0 0 0 0 0 0 0 0 0 0 0 0 0 0 0 0 0 0 0 0 0 0 0 0 0 0 0
0 0 0 0 0 0 0 0 0 0 0 0 0 0 0 0 0 0 0 0 0 0 0 0 0 0 0 0 0 0 0 0 0 0 0 0 0 0 0 0 0 0 0
0 0 0 0 0 0 0 0 0 0 0 0 0 0 0 0 0 0 0 0 0 0 0 0 0 0 0 0 0 0 0 0 0 0 0 0 0 0 0 0 0 0 0
0 0 0 0 0 0 0 0 0 0 0 0 0 0 0 0 0 0 0 0 0 0 0 0 0 0 0 0 0 0 0 0 0 0 0 0 0 0 0 0 0 0 0
0 0 0 0 0 0 0 0 0 0 0 0 0 0 0 0 0 0 0 0 0 0 0 0 0 0 0 0 0 0 0 0 0 0 0 0 0 0 0 0 0 0 0
0 0 0 0 0 0 0 0 0 0 0 0 0 0 0 0 0 0 0 0 0 0 0 0 0 0 0 0 0 0 0 0 0 0 0 0 0 0 0 0 0 0 0
0 0 0 0 0 0 0 0 0 0 0 0 0 0 0 0 0 0 0 0 0 0 0 0 0 0 0 0 0 0 0 0 0 0 0 0 0 0 0 0 0 0 0
0 0 0 0 0 0 0 0 0 0 0 0 0 0 0 0 0 0 0 0 0 0 0 0 0 0 0 0 0 0 0 0 0 0 0 0 0 0 0 0 0 0 0
0 0 0 0 0 0 0 0 0 0 0 0 0 0 0 0 0 0 0 0 0 0 0 0 0 0 0 0 0 0 0 0 0 0 0 0 0 0 0 0 0 0 0
0 0 0 0 0 0 0 0 0 0 0 0 0 0 0 0 0 0 0 0 0 0 0 0 0 0 0 0 0 0 0 0 0 0 0 0 0 0 0 0 0 0 0
0 0 0 0 0 0 0 0 0 0 0 0 0 0 0 0 0 0 0 0 0 0 0 0 0 0 0 0 0 0 0 0 0 0 0 0 0 0 0 0 0 0 0
0 0 0 0 0 0 0 0 0 0 0 0 0 0 0 0 0 0 0 0 0 0 0 0 0 0 0 0 0 0 0 0 0 0 0 0 0 0 0 0 0 0 0
0 0 0 0 0 0 0 0 0 0 0 0 0 0 0 0 0 0 0 0 0 0 0 0 0 0 0 0 0 0 0 0 0 0 0 0 0 0 0 0 0 0 0
0 0 0 0 0 0 0 0 0 0 0 0 0 0 0 0 0 0 0 0 0 0 0 0 0 0 0 0 0 0 0 0 0 0 0 0 0 0 0 0 0 0 0
0 0 0 0 0 0 0 0 0 0 0 0 0 0 0 0 0 0 0 0 0 0 0 0 0 0 0 0 0 0 0 0 0 0 0 0 0 0 0 0 0 0 0
0 0 0 0 0 0 0 0 0 0 0 0 0 0 0 0 0 0 0 0 0 0 0 0 0 0 0 0 0 0 0 0 0 0 0 0 0 0 0 0 0 0 0
0 0 0 0 0 0 0 0 0 0 0 0 0 0 0 0 0 0 0 0 0 0 0 0 0 0 0 0 0 0 0 0 0 0 0 0 0 0 0 0 0 0 0
0 0 0 0 0 0 0 0 0 0 0 0 0 0 0 0 0 0 0 0 0 0 0 0 0 0 0 0 0 0 0 0 0 0 0 0 0 0 0 0 0 0 0
0 0 0 0 0 0 0 0 0 0 0 0 0 0 0 0 0 0 0 0 0 0 0 0 0 0 0 0 0 0 0 0 0 0 0 0 0 0 0 0 0 0 0
0 0 0 0 0 0 0 0 0 0 0 0 0 0 0 0 0 0 0 0 0 0 0 0 0 0 0 0 0 0 0 0 0 0 0 0 0 0 0 0 0 0 0
0 0 0 0 0 0 0 0 0 0 0 0 0 0 0 0 0 0 0 0 0 0 0 0 0 0 0 0 0 0 0 0 0 0 0 0 0 0 0 0 0 0 0
0 0 0 0 0 0 0 0 0 0 0 0 0 0 0 0 0 0 0 0 0 0 0 0 0 0 0 0 0 0 0 0 0 0 0 0 0 0 0 0 0 0 0
0 0 0 0 0 0 0 0 0 0 0 0 0 0 0 0 0 0 0 0 0 0 0 0 0 0 0 0 0 0 0 0 0 0 0 0 0 0 0 0 0 0 0
0 0 0 0 0 0 0 0 0 0 0 0 0 0 0 0 0 0 0 0 0 0 0 0 0 0 0 0 0 0 0 0 0 0 0 0 0 0 0 0 0 0 0
0 0 0 0 0 0 0 0 0 0 0 0 0 0 0 0 0 0 0 0 0 0 0 0 0 0 0 0 0 0 0 0 0 0 0 0 0 0 0 0 0 0 0
Height
5801 5797 5793 5789 5785 5781 5778 5774 5770 5766 5763 5760 5757 5754 5752 5750 5749 5748 5747 5746 5746 5746 5746 5747 5747 5748 5749 5750 5752 5754 5757 5760 5764 5767 5770 5774 5777 5781 5785 5789 5793 5797 5801
5802 5798 5794 5791 5787 5783 5779 5775 5772 5768 5765 5761 5758 5756 5753 5751 5749 5748 5747 5746 5745 5744 5744 5744 5743 5744 5744 5745 5746 5747 5750 5753 5756 5759 5762 5765 5768 5772 5776 5780 5784 5788 5791
5803 5799 5795 5792 5788 5784 5781 5777 5773 5770 5766 5763 5760 5757 5755 5752 5750 5748 5747 5745 5744 5743 5742 5741 5740 5740 5739 5739 5740 5741 5743 5746 5748 5751 5754 5756 5759 5763 5767 5771 5775 5778 5782
5803 5800 5796 5792 5789 5785 5782 5778 5775 5771 5768 5765 5762 5759 5756 5753 5751 5748 5747 5745 5743 5742 5740 5739 5737 5736 5735 5735 5735 5735 5737 5739 5741 5744 5746 5748 5750 5753 5757 5761 5765 5768 5772
5803 5800 5796 5793 5789 5786 5783 5779 5776 5772 5769 5766 5763 5760 5757 5754 5752 5749 5747 5745 5743 5741 5739 5737 5735 5734 5732 5731 5730 5730 5731 5733 5734 5736 5738 5740 5743 5745 5748 5752 5755 5759 5762
5802 5799 5796 5793 5790 5786 5783 5780 5776 5773 5770 5767 5764 5761 5758 5755 5753 5750 5748 5745 5743 5741 5738 5736 5734 5732 5730 5728 5727 5726 5727 5727 5728 5729 5731 5733 5736 5738 5740 5743 5747 5750 5754
5802 5799 5796 5792 5789 5786 5783 5780 5777 5773 5770 5767 5764 5761 5759 5756 5753 5751 5748 5746 5743 5741 5738 5735 5733 5731 5728 5727 5725 5724 5723 5723 5724 5725 5726 5727 5729 5731 5734 5736 5738 5741 5744
5800 5797 5794 5791 5788 5785 5782 5779 5776 5773 5770 5767 5764 5761 5758 5756 5753 5751 5748 5746 5743 5740 5738 5735 5732 5730 5727 5725 5723 5722 5721 5720 5720 5720 5721 5722 5723 5725 5727 5729 5730 5733 5735
5799 5796 5793 5790 5787 5784 5781 5778 5775 5772 5769 5766 5763 5760 5758 5755 5752 5750 5747 5745 5742 5740 5737 5734 5732 5729 5727 5724 5722 5720 5719 5718 5717 5717 5717 5718 5719 5720 5721 5722 5723 5725 5727
5796 5794 5791 5788 5785 5782 5779 5776 5773 5770 5767 5764 5762 5759 5756 5754 5751 5749 5746 5744 5741 5739 5736 5734 5731 5729 5726 5724 5722 5720 5718 5716 5715 5715 5714 5714 5714 5715 5715 5716 5717 5719 5720
5793 5791 5788 5785 5783 5780 5777 5774 5771 5768 5765 5762 5760 5757 5754 5752 5749 5747 5744 5742 5739 5737 5734 5732 5730 5727 5725 5723 5720 5718 5716 5715 5713 5712 5711 5710 5710 5710 5710 5711 5711 5713 5714
5790 5788 5785 5782 5779 5777 5774 5771 5768 5765 5762 5759 5757 5754 5751 5749 5747 5744 5742 5740 5737 5735 5732 5730 5728 5726 5723 5721 5719 5717 5715 5713 5711 5710 5708 5707 5707 5706 5706 5706 5706 5707 5708
5786 5784 5781 5778 5776 5773 5770 5767 5764 5761 5759 5756 5753 5751 5748 5746 5743 5741 5739 5736 5734 5732 5730 5727 5725 5723 5720 5718 5716 5714 5712 5710 5709 5707 5706 5704 5703 5702 5702 5701 5701 5701 5702
5781 5779 5777 5774 5771 5769 5766 5763 5760 5757 5754 5752 5749 5747 5744 5742 5739 5737 5735 5732 5730 5728 5726 5724 5722 5719 5717 5715 5713 5711 5709 5707 5706 5704 5702 5701 5700 5698 5698 5697 5696 5696 5696
5776 5774 5772 5769 5766 5764 5761 5758 5755 5753 5750 5747 5744 5742 5739 5737 5735 5732 5730 5728 5726 5724 5721 5719 5717 5715 5713 5711 5709 5707 5705 5703 5701 5700 5698 5696 5695 5694 5692 5691 5691 5690 5689
5770 5768 5766 5763 5761 5758 5756 5753 5750 5747 5745 5742 5739 5736 5734 5732 5729 5727 5725 5723 5721 5719 5717 5714 5712 5710 5708 5706 5704 5702 5700 5698 5696 5694 5693 5691 5689 5688 5686 5685 5684 5683 5682
5764 5762 5759 5757 5755 5752 5749 5747 5744 5742 5739 5736 5733 5731 5728 5726 5723 5721 5719 5717 5715 5713 5711 5709 5706 5704 5702 5700 5698 5696 5694 5692 5690 5688 5686 5684 5682 5681 5679 5678 5676 5675 5674
5756 5755 5752 5750 5748 5745 5743 5740 5737 5734 5732 5729 5726 5724 5721 5719 5716 5714 5712 5710 5708 5706 5704 5702 5699 5697 5695 5693 5691 5689 5687 5684 5682 5680 5678 5676 5674 5672 5671 5669 5667 5666 5664
5748 5747 5745 5743 5740 5738 5735 5732 5729 5727 5724 5721 5719 5716 5714 5711 5709 5707 5705 5703 5700 5698 5696 5694 5692 5689 5687 5685 5683 5680 5678 5676 5673 5671 5669 5667 5665 5663 5661 5659 5657 5655 5654
5740 5738 5736 5734 5732 5729 5727 5724 5721 5719 5716 5713 5710 5708 5705 5703 5701 5698 5696 5694 5692 5690 5687 5685 5683 5680 5678 5675 5673 5671 5668 5666 5663 5661 5658 5656 5653 5651 5649 5647 5645 5643 5641
5730 5728 5727 5725 5722 5720 5717 5715 5712 5710 5707 5704 5701 5698 5696 5694 5691 5689 5687 5685 5682 5680 5678 5675 5672 5670 5667 5665 5662 5659 5657 5654 5651 5648 5646 5643 5640 5638 5635 5633 5631 5629 5627
5720 5718 5716 5714 5712 5710 5707 5705 5702 5700 5697 5694 5691 5689 5686 5684 5682 5679 5677 5675 5672 5669 5667 5664 5662 5659 5656 5653 5650 5647 5644 5641 5638 5635 5631 5628 5625 5622 5620 5617 5615 5613 5611
5709 5707 5705 5704 5701 5699 5697 5694 5692 5689 5686 5683 5681 5679 5676 5674 5671 5669 5666 5664 5661 5658 5655 5653 5650 5647 5643 5640 5637 5633 5630 5626 5623 5619 5615 5612 5608 5605 5602 5599 5596 5594 5592
5697 5695 5694 5692 5690 5688 5685 5683 5680 5678 5675 5672 5670 5667 5665 5662 5660 5657 5655 5652 5649 5646 5643 5640 5636 5633 5629 5626 5622 5618 5614 5610 5606 5602 5598 5594 5590 5586 5583 5580 5577 5574 5572
5684 5683 5681 5680 5678 5676 5674 5671 5669 5666 5663 5661 5658 5656 5653 5651 5648 5645 5642 5639 5636 5633 5630 5626 5622 5618 5614 5610 5606 5601 5597 5592 5587 5583 5579 5574 5570 5566 5562 5558 5555 5553 5550
5672 5670 5669 5667 5665 5663 5661 5659 5656 5654 5651 5649 5646 5643 5641 5638 5635 5632 5629 5626 5623 5619 5615 5611 5607 5603 5598 5594 5589 5584 5578 5573 5568 5563 5558 5554 5549 5544 5540 5536 5533 5529 5527
Wind_Speed
20 20 20 20 20 20 20 20 19 19 17 16 15 13 12 10 9 7 5 6 7 9 11 13 16 18 20 22 25 28 30 32 33 35 36 37 39 40 41 42 42 42 42
19 20 20 20 20 20 20 20 19 19 18 17 16 15 14 12 10 9 7 6 6 7 9 11 14 16 18 20 23 25 27 30 32 34 36 36 38 39 41 42 42 43 44
19 19 20 19 19 19 19 19 19 19 18 18 17 15 15 14 12 10 9 8 7 7 8 9 11 13 16 18 20 23 25 27 29 32 34 36 36 38 40 41 42 43 43
18 19 19 19 19 19 19 19 19 19 19 18 17 16 16 15 14 12 10 9 9 9 9 8 9 10 12 14 17 20 22 25 27 28 31 33 34 36 38 40 41 42 43
18 18 19 19 19 18 18 18 18 18 18 18 17 16 16 16 16 15 13 12 11 10 10 10 9 9 10 11 13 16 19 22 24 26 28 30 31 33 34 36 38 40 40
17 18 18 18 18 18 18 18 18 18 18 17 17 16 16 16 16 16 15 14 13 12 12 12 10 9 9 9 11 12 14 17 19 21 23 26 28 29 31 32 34 37 38
17 18 18 17 17 17 18 17 17 17 17 17 16 15 15 15 15 15 15 15 14 14 13 13 12 10 10 9 9 9 10 12 15 17 19 21 24 26 28 29 32 34 35
17 17 18 18 17 18 18 17 17 17 16 16 16 15 15 15 14 14 15 15 14 14 14 14 14 12 11 10 9 9 10 11 12 14 16 18 21 23 24 26 29 31 33
17 17 18 18 18 18 18 18 17 17 16 16 16 15 15 15 14 14 14 15 15 15 14 14 14 14 13 12 11 10 9 10 11 12 13 15 17 19 21 23 25 27 29
17 18 18 18 19 19 19 18 17 17 16 16 16 15 15 15 14 14 14 14 15 15 14 14 14 14 14 13 12 11 10 9 9 11 12 14 15 17 19 21 22 24 27
17 18 19 19 19 19 19 19 18 17 17 17 16 16 15 15 15 15 15 15 15 15 14 14 14 14 14 13 13 12 11 11 10 11 12 13 14 16 18 19 21 23 25
18 19 19 20 20 20 21 20 19 18 17 17 17 17 17 16 16 16 16 16 16 16 15 15 14 14 14 14 14 13 13 12 12 12 12 13 14 15 16 18 19 21 23
19 20 21 21 21 21 22 22 21 19 18 18 18 18 18 18 18 17 17 17 17 17 16 16 16 15 15 15 14 14 14 13 13 13 13 13 14 15 16 18 19 21 22
21 21 22 22 22 23 23 23 22 21 20 20 20 19 19 19 19 19 19 18 18 18 18 17 17 17 17 17 16 16 15 15 15 15 15 15 16 16 17 17 19 20 22
22 23 23 23 23 24 24 24 23 23 22 22 21 21 21 21 20 20 20 19 19 19 19 19 19 19 19 18 18 18 18 18 17 17 17 18 18 19 19 20 21 21 23
24 24 24 24 25 25 25 25 24 24 23 23 23 22 22 22 22 22 21 21 20 20 20 21 21 21 21 21 21 21 21 21 21 21 21 21 21 21 22 23 23 24 24
25 26 26 26 26 26 26 26 26 25 25 25 24 24 24 24 24 24 23 23 22 22 22 22 23 23 23 23 23 24 24 24 24 24 25 25 25 25 25 26 26 27 27
27 27 27 28 28 28 28 28 28 28 27 27 26 26 26 25 25 25 25 25 24 24 24 24 25 25 25 25 26 26 27 27 27 28 28 28 28 29 29 30 30 31 31
29 29 30 30 30 30 30 30 30 30 30 29 29 28 28 27 27 26 26 27 27 27 27 27 28 28 28 29 29 29 30 30 31 31 31 32 32 33 33 33 34 35 35
31 31 32 32 32 32 32 31 31 32 32 31 31 30 30 29 29 29 29 29 29 30 30 30 31 31 32 32 33 33 34 34 35 35 36 36 37 37 38 38 38 38 39
33 33 33 34 34 34 34 34 34 34 33 33 33 32 32 32 31 31 31 32 32 33 33 33 34 34 35 36 36 37 38 38 39 40 41 42 42 43 43 43 44 44 44
35 35 36 36 36 36 36 36 36 36 35 34 34 33 33 33 33 34 34 34 35 35 36 37 37 38 39 40 41 41 42 43 44 44 45 46 47 47 48 48 49 49 49
38 38 38 38 38 38 38 38 38 37 37 36 35 35 35 35 35 35 36 37 37 38 39 39 40 41 43 44 45 45 46 47 48 49 49 50 50 51 51 52 52 52 52
40 40 40 40 40 40 40 39 39 39 38 37 37 37 37 37 37 38 38 39 39 40 41 42 43 44 46 47 48 49 50 51 52 53 53 53 53 54 54 54 55 55 55
42 42 42 42 42 42 41 41 41 40 40 39 39 39 39 39 39 40 40 41 41 42 43 45 46 47 48 49 51 52 53 54 55 55 55 55 55 56 56 56 57 57 57
44 44 44 44 43 43 43 43 42 41 41 41 40 40 40 41 41 41 42 42 43 44 46 47 48 49 50 52 53 54 55 55 56 56 57 57 57 57 57 57 57 57 58
Wind_Direction
12 12 12 14 15 16 16 17 18 19 19 19 17 15 13 10 4 357 341 316 293 281 272 264 259 256 255 254 249 246 244 241 239 238 237 237 237 236 234 234 236 237 238
11 12 12 13 15 17 17 17 18 18 19 19 19 19 19 18 12 7 358 340 320 303 288 277 270 264 261 258 253 249 247 245 242 241 240 239 238 237 237 237 237 239 240
9 10 11 13 14 15 16 16 16 17 18 18 18 18 17 16 14 9 2 355 346 330 315 298 283 274 268 263 256 250 247 246 245 244 244 243 242 241 239 239 240 240 240
7 8 9 11 13 13 14 15 15 16 17 18 18 17 17 16 14 11 4 360 356 350 340 324 304 292 282 270 260 253 250 248 247 246 245 245 245 243 242 241 241 241 240
5 5 7 8 9 10 11 12 13 14 15 15 15 16 16 16 15 15 13 7 2 358 352 342 324 311 299 286 269 260 255 251 251 249 247 246 247 246 245 243 242 241 241
1 2 2 3 5 7 7 7 8 9 10 11 11 12 13 13 14 15 13 11 7 2 359 355 348 337 321 305 285 272 264 258 255 251 249 247 247 248 248 246 245 244 244
356 358 359 359 360 1 1 2 2 3 4 6 7 7 7 7 7 8 8 7 5 2 359 357 353 346 339 330 312 294 280 269 263 256 252 250 249 250 250 248 247 247 246
351 353 355 355 355 355 355 355 355 356 357 357 359 360 359 359 359 359 360 360 359 359 358 357 354 347 341 334 324 308 294 282 273 264 258 255 252 252 253 252 250 250 249
344 347 349 351 351 350 350 349 348 348 349 349 349 350 351 351 350 350 350 351 352 352 351 350 351 350 346 342 334 322 308 294 284 276 266 260 256 256 257 255 253 252 251
338 341 342 344 345 345 345 344 342 342 342 341 341 340 341 342 343 343 343 344 345 347 347 348 348 349 349 347 343 336 326 313 299 289 280 270 264 262 261 259 257 255 253
332 335 337 338 339 339 340 339 338 337 336 335 334 332 332 333 334 336 336 336 337 338 340 341 342 342 342 342 340 338 333 325 314 303 294 285 276 270 266 263 262 260 258
326 329 331 332 333 334 335 335 333 331 329 328 328 326 325 325 326 327 328 329 329 330 331 332 332 331 331 331 330 330 329 325 320 312 302 294 287 279 273 268 266 263 262
320 323 325 327 328 329 331 331 330 328 325 323 323 322 320 319 319 319 320 321 322 322 322 323 323 322 321 320 320 319 318 317 315 312 307 300 294 287 280 273 270 270 268
314 317 320 322 323 324 326 327 326 324 322 320 318 317 316 315 315 315 315 315 316 315 314 314 315 314 314 314 313 312 311 309 307 305 302 298 294 291 287 283 278 275 273
309 312 315 317 319 320 321 322 322 320 318 317 314 312 311 311 310 310 310 310 310 310 309 309 309 308 308 307 307 306 305 303 302 300 298 295 291 287 286 284 280 279 277
304 308 311 313 314 316 316 317 317 316 315 313 311 309 307 306 306 306 306 306 306 305 305 305 304 303 303 302 302 301 300 299 297 296 294 293 291 289 286 283 281 280 278
300 303 306 308 310 312 313 312 312 312 311 310 309 307 305 303 302 302 302 302 302 302 302 302 301 301 300 299 299 298 297 296 295 293 291 290 288 287 285 283 282 281 279
295 298 301 304 305 307 308 309 308 308 308 307 306 305 303 301 300 299 299 299 299 299 300 300 300 299 298 298 297 296 295 295 294 292 291 289 287 285 283 282 281 280 278
292 295 297 300 302 303 304 305 305 305 305 304 303 301 300 300 298 297 297 298 298 298 297 297 297 297 297 297 297 296 295 294 293 292 290 290 288 286 284 282 281 279 278
289 292 294 297 299 300 301 302 302 303 302 301 300 299 298 297 296 295 295 296 296 296 296 296 296 296 296 296 296 295 295 294 293 292 290 289 288 286 285 283 281 279 278
287 290 292 295 296 298 299 299 300 300 300 299 298 297 296 295 294 293 293 294 294 295 295 295 295 295 295 295 295 295 294 294 293 292 291 289 288 287 285 284 282 280 278
285 288 290 292 294 295 296 298 298 299 298 296 296 295 293 293 292 292 292 293 293 294 294 294 295 295 295 295 295 295 294 294 293 292 291 290 289 287 285 284 282 281 279
283 286 288 290 291 293 294 296 297 297 296 295 293 293 292 292 292 291 291 292 293 293 293 294 294 295 295 295 295 295 295 294 294 293 292 290 289 287 286 284 282 280 278
282 284 286 288 289 291 292 294 295 295 294 293 292 292 291 291 291 292 291 292 292 293 294 294 295 295 295 295 295 295 295 295 294 293 292 291 290 288 286 284 283 281 279
281 283 285 286 288 289 291 292 293 293 293 292 292 291 291 291 292 292 292 293 293 294 295 296 296 297 297 297 297 297 297 296 295 294 293 292 291 289 287 285 283 281 279
279 281 283 285 287 288 289 290 291 291 291 291 291 291 291 292 292 293 293 294 294 295 296 297 298 298 299 299 299 299 298 298 297 296 295 294 293 291 289 287 285 282 280